Location: Croisilles
(50.1998°N, 2.8793°E)
Time: 02:45:32
(UTC+00:00)

Feng Yun 1-1 Rocket - Pass Details

Date: 21 January 2021
Orbit: 830 x 932 km, 99.2° (Epoch: 24 February)

Event Time Altitude Azimuth Distance (km) Brightness Sun altitude
Rises 17:48:56 0° 163° (SSE) 3,372 7.3 -13.3°
Reaches altitude 10° 17:51:15 10° 164° (SSE) 2,449 6.6 -13.7°
Maximum altitude 17:56:41 86° 255° (WSW) 860 4.3 -14.5°
Drops below altitude 10° 18:02:18 10° 344° (NNW) 2,521 6.7 -15.4°
Sets 18:04:43 0° 345° (NNW) 3,479 7.4 -15.8°
